Погода в Базарном Сызгане

Россия / Ульяновская область     53°45′03″N   46°45′51″E
темп.,
°C
ветер,
м/с
пор.,
м/с
влажн.,
%
обл.,
%
осадки,
мм/ч
давл.,
гПа
погр.,
м
13 мая, чт
чт1301:00+13вюв369010 0.1 1023105
04:00+12в358216 0.1 102275
07:00+14в413764 0.0 1021347
10:00+16вюв61474100 0.5 1020553
13:00+22юв8155568 0.2 10191251
16:00+22ююв81659100 0.2 10181593
19:00+20ююв611666 0.3 1018649
22:00+17юв5127575 1.4 1019365
14 мая, пт
пт1401:00+14ююв35855 0.4 101978
04:00+13ю238886 0.5 102045
07:00+16ю128494 0.0 102080
10:00+21ююв3467100 0.0 1020459
13:00+24ююв465759 0.0 10201051
16:00+25ю57455 0.0 10191544
19:00+22ююв3863100 0.0 1019254
22:00+18ююв4117699 0.0 1019207
15 мая, сб
сб1501:00+17ююв41465100 0.0 1019282
04:00+16ююв5146081 0.0 1019259
07:00+17ююв5146113 0.0 1019292
10:00+23ю6134451 0.0 1019614
13:00+26ю711336 0.0 10191249
16:00+26ю71238100 0.0 10181439
19:00+22ю51251100 0.0 1018354
22:00+18ююв413605 0.0 1018224
16 мая, вс
вс1601:00+17ююв414559 0.0 1018239
04:00+16ююв514587 0.0 1018245
07:00+17ю312635 0.0 1018279
10:00+23ю594496 0.0 1018576
13:00+26ююз6733100 0.0 10171521
16:00+26ююз5740100 0.0 10171403
19:00+22ююз3659100 0.0 1017158
22:00+19ю2262100 0.0 101712
17 мая, пн
пн1701:00+17ю116323 0.0 101711
04:00+17ююв226385 0.0 101819
07:00+19ю246437 0.0 1018107
10:00+25ююв234534 0.0 1018315
13:00+28ю35335 0.0 10172068
16:00+24ююв365295 0.0 1017295
19:00+19ссв2469100 0.3 101880
22:00+18в335984 0.3 101832